Location: Krasnoyarskiy Pitomnik
(51.1333°N, 71.6167°E)
Time: 22:13:20
(UTC+00:00)

A-11 Canister half - Pass Details

Date: 19 April 2024
Orbit: 1525 x 1683 km, 47.3° (Epoch: 19 May)

Event Time Altitude Azimuth Distance (km) Brightness Sun altitude
Rises 05:06:37 0° 272° (W) 4,927 11.3 42.7°
Reaches altitude 10° 05:09:48 10° 270° (W) 3,945 10.9 43.0°
Maximum altitude 05:19:52 69° 190° (S) 1,774 10.4 44.1°
Drops below altitude 10° 05:29:49 10° 110° (ESE) 3,907 11.9 45.0°
Sets 05:32:57 0° 109° (ESE) 4,877 12.2 45.3°
